FDB22 OBBI-OMDB

Flight info

Callsign FDB22
Flight time 0h 49m
Altitude 25000
Route GOLKO DCT HAYYA P708 VELAM DCT VUTAN P708 RESAR DCT ALSEM L305 KIVUS P559 PUSOT DCT DATOB DCT PATID DCT DB528 DCT DB451 DCT RARPI DCT TUKAK DCT DB522 DCT ULDOT DCT DB578 DCT 30TH3
Aircraft B38M/M-SDE1FGHILORVWXY/HB1

Departure

Time 2026-04-24 20:11
Airport Bahrain International Airport (OBBI)

Arrival

Time 2026-04-24 21:00
Airport Dubai International Airport (OMDB)
Time Latitude Longitude Altitude Speed Heading
2026-04-24 19:44 26.27014 50.62709 23 ft 0 kts 213°
2026-04-24 19:58 26.27033 50.62723 25 ft 4 kts 213°
2026-04-24 19:58 26.27055 50.62739 26 ft 4 kts 213°
2026-04-24 19:59 26.27078 50.62753 26 ft 4 kts 198°
2026-04-24 19:59 26.27102 50.62754 24 ft 4 kts 155°
2026-04-24 19:59 26.27119 50.62738 23 ft 1 kts 123°
2026-04-24 19:59 26.27132 50.62715 25 ft 4 kts 122°
2026-04-24 20:00 26.27136 50.62708 23 ft 1 kts 122°
2026-04-24 20:04 26.27136 50.62709 22 ft 1 kts 122°
2026-04-24 20:05 26.27130 50.62720 25 ft 3 kts 122°
2026-04-24 20:05 26.27117 50.62743 23 ft 5 kts 122°
2026-04-24 20:05 26.27095 50.62781 25 ft 7 kts 122°
2026-04-24 20:05 26.27063 50.62837 26 ft 10 kts 122°
2026-04-24 20:06 26.27018 50.62916 27 ft 15 kts 122°
2026-04-24 20:06 26.26954 50.63032 24 ft 20 kts 121°
2026-04-24 20:06 26.26926 50.63140 23 ft 12 kts 64°
2026-04-24 20:06 26.26952 50.63242 23 ft 17 kts 111°
2026-04-24 20:07 26.26906 50.63318 22 ft 19 kts 128°
2026-04-24 20:07 26.26793 50.63512 22 ft 25 kts 122°
2026-04-24 20:07 26.26705 50.63667 24 ft 20 kts 123°
2026-04-24 20:07 26.26627 50.63799 26 ft 22 kts 122°
2026-04-24 20:08 26.26535 50.63962 24 ft 27 kts 122°
2026-04-24 20:08 26.26424 50.64155 22 ft 32 kts 123°
2026-04-24 20:08 26.26292 50.64379 21 ft 37 kts 122°
2026-04-24 20:08 26.26162 50.64610 22 ft 27 kts 122°
2026-04-24 20:09 26.26062 50.64783 25 ft 24 kts 122°
2026-04-24 20:09 26.26030 50.64923 23 ft 20 kts 66°
2026-04-24 20:09 26.26132 50.64989 21 ft 12 kts 341°
2026-04-24 20:09 26.26193 50.64905 20 ft 17 kts 302°
2026-04-24 20:10 26.26263 50.64785 18 ft 22 kts 303°
2026-04-24 20:10 26.26470 50.64425 17 ft 91 kts 302°
2026-04-24 20:10 26.26925 50.63632 17 ft 150 kts 303°
2026-04-24 20:10 26.27553 50.62530 289 ft 177 kts 304°
2026-04-24 20:11 26.28249 50.61327 835 ft 191 kts 305°
2026-04-24 20:11 26.28996 50.60066 1498 ft 198 kts 306°
2026-04-24 20:11 26.29754 50.58743 2067 ft 212 kts 303°
2026-04-24 20:11 26.30579 50.57295 2426 ft 230 kts 314°
2026-04-24 20:12 26.31980 50.56486 3099 ft 233 kts 352°
2026-04-24 20:12 26.33358 50.56591 3355 ft 251 kts 13°
2026-04-24 20:12 26.34886 50.57582 3469 ft 263 kts 44°
2026-04-24 20:12 26.36122 50.59129 4108 ft 272 kts 45°
2026-04-24 20:13 26.37420 50.60690 4876 ft 277 kts 45°
2026-04-24 20:13 26.38747 50.62284 5628 ft 283 kts 46°
2026-04-24 20:13 26.40090 50.63907 6396 ft 287 kts 50°
2026-04-24 20:13 26.40991 50.65880 7118 ft 290 kts 78°
2026-04-24 20:14 26.41089 50.68146 7800 ft 296 kts 94°
2026-04-24 20:14 26.41094 50.70450 8531 ft 300 kts 90°
2026-04-24 20:14 26.41143 50.72797 9287 ft 304 kts 90°
2026-04-24 20:14 26.41194 50.75170 10026 ft 309 kts 90°
2026-04-24 20:15 26.41247 50.77580 10748 ft 313 kts 90°
2026-04-24 20:15 26.41301 50.80018 11505 ft 316 kts 90°
2026-04-24 20:15 26.41354 50.82484 12277 ft 320 kts 91°
2026-04-24 20:15 26.41408 50.84985 13056 ft 325 kts 91°
2026-04-24 20:16 26.41462 50.87514 13857 ft 329 kts 91°
2026-04-24 20:16 26.41517 50.90089 14564 ft 334 kts 91°
2026-04-24 20:16 26.41572 50.92698 15254 ft 339 kts 91°
2026-04-24 20:16 26.41627 50.95348 15944 ft 345 kts 90°
2026-04-24 20:17 26.41683 50.98040 16631 ft 350 kts 90°
2026-04-24 20:17 26.41795 51.03555 17965 ft 361 kts 90°
2026-04-24 20:17 26.41852 51.06368 18563 ft 366 kts 90°
2026-04-24 20:18 26.41889 51.08252 18957 ft 368 kts 90°
2026-04-24 20:18 26.41965 51.12095 19763 ft 373 kts 90°
2026-04-24 20:18 26.42022 51.14994 20338 ft 376 kts 90°
2026-04-24 20:18 26.42078 51.17926 20919 ft 380 kts 90°
2026-04-24 20:19 26.42134 51.20881 21492 ft 383 kts 90°
2026-04-24 20:19 26.42190 51.23865 22040 ft 386 kts 90°
2026-04-24 20:19 26.42246 51.26874 22595 ft 390 kts 90°
2026-04-24 20:19 26.42302 51.29914 23134 ft 393 kts 90°
2026-04-24 20:20 26.42357 51.32969 23638 ft 397 kts 90°
2026-04-24 20:20 26.42413 51.36070 24065 ft 400 kts 90°
2026-04-24 20:20 26.42467 51.39145 24491 ft 403 kts 90°
2026-04-24 20:20 26.42522 51.42283 24828 ft 408 kts 90°
2026-04-24 20:21 26.42576 51.45449 24914 ft 408 kts 90°
2026-04-24 20:21 26.42631 51.48620 24923 ft 417 kts 90°
2026-04-24 20:21 26.42690 51.51971 24923 ft 431 kts 90°
2026-04-24 20:21 26.42748 51.55314 24922 ft 443 kts 90°
2026-04-24 20:22 26.42806 51.58795 24921 ft 455 kts 90°
2026-04-24 20:22 26.42865 51.62372 24914 ft 466 kts 90°
2026-04-24 20:22 26.42924 51.66014 24911 ft 476 kts 90°
2026-04-24 20:22 26.42983 51.69757 24913 ft 485 kts 90°
2026-04-24 20:23 26.43041 51.73554 24909 ft 494 kts 90°
2026-04-24 20:23 26.43099 51.77408 24908 ft 501 kts 90°
2026-04-24 20:23 26.43157 51.81317 24908 ft 506 kts 90°
2026-04-24 20:23 26.43212 51.85248 24909 ft 508 kts 90°
2026-04-24 20:24 26.43267 51.89199 24917 ft 509 kts 90°
2026-04-24 20:24 26.43321 51.93147 24914 ft 509 kts 90°
2026-04-24 20:24 26.43372 51.97087 24915 ft 509 kts 90°
2026-04-24 20:24 26.43424 52.01034 24912 ft 509 kts 90°
2026-04-24 20:25 26.43474 52.04983 24914 ft 509 kts 90°
2026-04-24 20:25 26.43522 52.08923 24920 ft 509 kts 90°
2026-04-24 20:25 26.43358 52.12858 24902 ft 506 kts 101°
2026-04-24 20:25 26.42454 52.16628 24920 ft 504 kts 110°
2026-04-24 20:26 26.41343 52.20332 24917 ft 504 kts 111°
2026-04-24 20:26 26.40172 52.24011 24911 ft 503 kts 112°
2026-04-24 20:26 26.38971 52.27685 24916 ft 503 kts 112°
2026-04-24 20:26 26.37753 52.31346 24909 ft 503 kts 112°
2026-04-24 20:27 26.36527 52.35001 24912 ft 503 kts 112°
2026-04-24 20:27 26.35243 52.38627 24912 ft 502 kts 116°
2026-04-24 20:27 26.33856 52.42200 24901 ft 503 kts 115°
2026-04-24 20:27 26.32482 52.45787 24910 ft 503 kts 115°
2026-04-24 20:28 26.31116 52.49377 24910 ft 503 kts 115°
2026-04-24 20:28 26.29751 52.52965 24907 ft 503 kts 115°
2026-04-24 20:28 26.28386 52.56555 24910 ft 503 kts 115°
2026-04-24 20:28 26.27021 52.60139 24902 ft 503 kts 115°
2026-04-24 20:29 26.26118 52.62510 24906 ft 503 kts 115°
2026-04-24 20:29 26.24287 52.67308 24906 ft 503 kts 115°
2026-04-24 20:29 26.22914 52.70899 24900 ft 503 kts 115°
2026-04-24 20:29 26.21545 52.74476 24903 ft 503 kts 115°
2026-04-24 20:30 26.20167 52.78071 24902 ft 504 kts 115°
2026-04-24 20:30 26.18812 52.81606 24895 ft 504 kts 115°
2026-04-24 20:30 26.17418 52.85238 24901 ft 504 kts 115°
2026-04-24 20:30 26.16057 52.88782 24898 ft 504 kts 115°
2026-04-24 20:31 26.14680 52.92364 24899 ft 504 kts 115°
2026-04-24 20:31 26.13299 52.95952 24896 ft 505 kts 115°
2026-04-24 20:31 26.11914 52.99548 24893 ft 504 kts 115°
2026-04-24 20:31 26.10543 53.03135 24898 ft 504 kts 114°
2026-04-24 20:32 26.09225 53.06750 24892 ft 504 kts 114°
2026-04-24 20:32 26.07901 53.10365 24896 ft 504 kts 114°
2026-04-24 20:32 26.06572 53.13973 24890 ft 504 kts 114°
2026-04-24 20:32 26.05241 53.17585 24892 ft 504 kts 114°
2026-04-24 20:33 26.03910 53.21190 24891 ft 504 kts 114°
2026-04-24 20:33 26.02579 53.24792 24892 ft 504 kts 114°
2026-04-24 20:33 26.01245 53.28399 24887 ft 504 kts 114°
2026-04-24 20:33 25.99910 53.32005 24888 ft 504 kts 114°
2026-04-24 20:34 25.98577 53.35605 24888 ft 504 kts 114°
2026-04-24 20:34 25.97240 53.39211 24887 ft 504 kts 114°
2026-04-24 20:34 25.95904 53.42811 24887 ft 504 kts 114°
2026-04-24 20:34 25.94567 53.46410 24884 ft 504 kts 114°
2026-04-24 20:35 25.93262 53.50037 24885 ft 505 kts 112°
2026-04-24 20:35 25.92017 53.53679 24885 ft 505 kts 112°
2026-04-24 20:35 25.90761 53.57315 24881 ft 505 kts 112°
2026-04-24 20:35 25.89498 53.60952 24880 ft 504 kts 112°
2026-04-24 20:36 25.88234 53.64584 24880 ft 504 kts 112°
2026-04-24 20:36 25.86970 53.68216 24882 ft 504 kts 112°
2026-04-24 20:36 25.85709 53.71850 24881 ft 504 kts 112°
2026-04-24 20:36 25.84451 53.75480 24877 ft 504 kts 112°
2026-04-24 20:37 25.83191 53.79112 24876 ft 504 kts 112°
2026-04-24 20:37 25.81932 53.82738 24877 ft 504 kts 112°
2026-04-24 20:37 25.80673 53.86361 24877 ft 503 kts 112°
2026-04-24 20:37 25.79412 53.89986 24874 ft 503 kts 112°
2026-04-24 20:38 25.78153 53.93600 24874 ft 503 kts 112°
2026-04-24 20:38 25.76909 53.97172 24876 ft 502 kts 112°
2026-04-24 20:38 25.75684 54.00797 24873 ft 503 kts 110°
2026-04-24 20:38 25.74576 54.04472 24877 ft 502 kts 110°
2026-04-24 20:39 25.73452 54.08143 24877 ft 502 kts 110°
2026-04-24 20:39 25.72304 54.11851 24875 ft 500 kts 110°
2026-04-24 20:39 25.71178 54.15479 24876 ft 494 kts 110°
2026-04-24 20:39 25.70064 54.19067 24873 ft 491 kts 110°
2026-04-24 20:40 25.68952 54.22639 24874 ft 490 kts 110°
2026-04-24 20:40 25.67841 54.26207 24874 ft 489 kts 110°
2026-04-24 20:40 25.66730 54.29770 24871 ft 489 kts 110°
2026-04-24 20:40 25.65641 54.33268 24704 ft 481 kts 110°
2026-04-24 20:41 25.64535 54.36842 23679 ft 488 kts 110°
2026-04-24 20:41 25.63438 54.40380 22514 ft 495 kts 110°
2026-04-24 20:41 25.62313 54.44001 21559 ft 496 kts 110°
2026-04-24 20:41 25.61182 54.47642 20908 ft 490 kts 110°
2026-04-24 20:42 25.60080 54.51185 20327 ft 483 kts 110°
2026-04-24 20:42 25.58996 54.54669 19775 ft 476 kts 110°
2026-04-24 20:42 25.58210 54.58205 19243 ft 470 kts 96°
2026-04-24 20:42 25.58257 54.61783 18863 ft 461 kts 83°
2026-04-24 20:43 25.58643 54.65275 18474 ft 453 kts 82°
2026-04-24 20:43 25.59047 54.68713 18052 ft 446 kts 82°
2026-04-24 20:43 25.59461 54.72096 17479 ft 443 kts 82°
2026-04-24 20:43 25.59881 54.75467 16956 ft 438 kts 82°
2026-04-24 20:44 25.60298 54.78786 16469 ft 433 kts 82°
2026-04-24 20:44 25.60711 54.82066 16031 ft 428 kts 82°
2026-04-24 20:44 25.60969 54.85323 15617 ft 421 kts 93°
2026-04-24 20:44 25.60401 54.88450 15309 ft 410 kts 112°
2026-04-24 20:45 25.59300 54.91325 15008 ft 402 kts 114°
2026-04-24 20:45 25.58214 54.94147 14734 ft 394 kts 114°
2026-04-24 20:45 25.57146 54.96898 14512 ft 384 kts 114°
2026-04-24 20:45 25.56102 54.99580 14323 ft 375 kts 114°
2026-04-24 20:46 25.55080 55.02200 14137 ft 366 kts 114°
2026-04-24 20:46 25.53959 55.04678 13980 ft 355 kts 122°
2026-04-24 20:46 25.52719 55.07004 13683 ft 351 kts 121°
2026-04-24 20:46 25.51485 55.09362 13111 ft 354 kts 121°
2026-04-24 20:47 25.50264 55.11718 12703 ft 352 kts 121°
2026-04-24 20:47 25.49459 55.13278 12437 ft 351 kts 121°
2026-04-24 20:47 25.48256 55.15616 12043 ft 349 kts 121°
2026-04-24 20:47 25.46657 55.18727 11527 ft 346 kts 121°
2026-04-24 20:48 25.45823 55.20227 11238 ft 345 kts 128°
2026-04-24 20:48 25.43692 55.22850 10575 ft 341 kts 134°
2026-04-24 20:48 25.42630 55.24130 10248 ft 339 kts 134°
2026-04-24 20:48 25.40539 55.26672 9594 ft 334 kts 133°
2026-04-24 20:49 25.39498 55.27945 9289 ft 327 kts 133°
2026-04-24 20:49 25.37995 55.29786 8867 ft 317 kts 133°
2026-04-24 20:49 25.36542 55.31567 8449 ft 309 kts 133°
2026-04-24 20:49 25.34968 55.33097 8194 ft 293 kts 153°
2026-04-24 20:50 25.33156 55.34126 8085 ft 294 kts 154°
2026-04-24 20:50 25.31350 55.35180 8012 ft 293 kts 154°
2026-04-24 20:50 25.29548 55.36235 8000 ft 293 kts 154°
2026-04-24 20:50 25.27748 55.37289 7998 ft 291 kts 154°
2026-04-24 20:51 25.26018 55.38302 7928 ft 274 kts 154°
2026-04-24 20:51 25.24339 55.39286 7535 ft 273 kts 154°
2026-04-24 20:51 25.22665 55.40265 7029 ft 273 kts 154°
2026-04-24 20:51 25.20982 55.41250 6541 ft 274 kts 153°
2026-04-24 20:52 25.19297 55.42236 6037 ft 274 kts 153°
2026-04-24 20:52 25.17616 55.43220 5523 ft 274 kts 153°
2026-04-24 20:52 25.15931 55.44205 5013 ft 274 kts 153°
2026-04-24 20:52 25.14245 55.45191 4513 ft 274 kts 153°
2026-04-24 20:53 25.12560 55.46176 4021 ft 275 kts 152°
2026-04-24 20:53 25.11004 55.47367 3505 ft 273 kts 130°
2026-04-24 20:53 25.09987 55.49103 3206 ft 263 kts 119°
2026-04-24 20:53 25.09083 55.50746 3203 ft 240 kts 120°
2026-04-24 20:54 25.08246 55.52253 3132 ft 222 kts 120°
2026-04-24 20:54 25.07655 55.53766 3040 ft 208 kts 94°
2026-04-24 20:54 25.07888 55.55225 2976 ft 188 kts 56°
2026-04-24 20:54 25.08825 55.56127 2934 ft 179 kts 16°
2026-04-24 20:55 25.10033 55.56133 2965 ft 176 kts 340°
2026-04-24 20:55 25.11153 55.55559 3047 ft 178 kts 333°
2026-04-24 20:55 25.12246 55.54922 3054 ft 177 kts 332°
2026-04-24 20:55 25.13333 55.54289 3031 ft 176 kts 332°
2026-04-24 20:56 25.14415 55.53661 2923 ft 176 kts 332°
2026-04-24 20:56 25.15472 55.53045 2731 ft 169 kts 332°
2026-04-24 20:56 25.16402 55.52308 2606 ft 164 kts 316°
2026-04-24 20:56 25.17094 55.51323 2419 ft 160 kts 303°
2026-04-24 20:57 25.17622 55.50297 2225 ft 150 kts 302°
2026-04-24 20:57 25.18143 55.49328 2040 ft 145 kts 303°
2026-04-24 20:57 25.18669 55.48379 1847 ft 144 kts 303°
2026-04-24 20:57 25.19191 55.47435 1680 ft 144 kts 303°
2026-04-24 20:58 25.19711 55.46494 1488 ft 144 kts 303°
2026-04-24 20:58 25.20232 55.45554 1313 ft 144 kts 303°
2026-04-24 20:58 25.20756 55.44606 1123 ft 145 kts 303°
2026-04-24 20:58 25.21282 55.43653 942 ft 145 kts 302°
2026-04-24 20:59 25.21807 55.42697 728 ft 147 kts 302°
2026-04-24 20:59 25.22345 55.41734 553 ft 148 kts 303°
2026-04-24 20:59 25.22886 55.40759 395 ft 149 kts 302°
2026-04-24 20:59 25.23426 55.39780 169 ft 150 kts 302°
2026-04-24 21:00 25.23960 55.38829 69 ft 136 kts 302°
2026-04-24 21:00 25.24348 55.38132 51 ft 74 kts 301°
2026-04-24 21:00 25.24552 55.37763 43 ft 51 kts 301°
2026-04-24 21:00 25.24726 55.37434 35 ft 42 kts 297°
2026-04-24 21:01 25.24780 55.37223 31 ft 9 kts 274°
2026-04-24 21:01 25.24786 55.37138 30 ft 13 kts 274°
2026-04-24 21:01 25.24788 55.37105 29 ft 3 kts 274°
2026-04-24 21:01 25.24789 55.37094 29 ft 2 kts 274°
2026-04-24 21:02 25.24790 55.37063 29 ft 6 kts 273°
2026-04-24 21:02 25.24793 55.37000 28 ft 10 kts 276°
2026-04-24 21:02 25.24822 55.36910 27 ft 15 kts 296°
2026-04-24 21:02 25.24858 55.36803 25 ft 16 kts 275°
2026-04-24 21:03 25.24889 55.36679 25 ft 18 kts 295°
2026-04-24 21:03 25.24955 55.36554 24 ft 20 kts 302°
2026-04-24 21:03 25.25005 55.36464 26 ft 10 kts 301°
2026-04-24 21:03 25.25041 55.36399 27 ft 9 kts 301°
2026-04-24 21:04 25.25059 55.36366 26 ft 6 kts 301°
2026-04-24 21:04 25.25084 55.36320 27 ft 8 kts 301°
2026-04-24 21:04 25.25118 55.36258 25 ft 11 kts 301°
2026-04-24 21:04 25.25166 55.36171 25 ft 16 kts 302°
2026-04-24 21:05 25.25239 55.36043 25 ft 23 kts 301°
2026-04-24 21:05 25.25324 55.35887 24 ft 25 kts 302°
2026-04-24 21:05 25.25402 55.35747 26 ft 20 kts 301°
2026-04-24 21:05 25.25481 55.35604 24 ft 22 kts 301°
2026-04-24 21:06 25.25573 55.35440 24 ft 25 kts 302°
2026-04-24 21:06 25.25661 55.35282 23 ft 14 kts 301°
2026-04-24 21:06 25.25670 55.35265 25 ft 3 kts 301°
2026-04-24 21:06 25.25695 55.35218 24 ft 11 kts 301°
2026-04-24 21:07 25.25743 55.35132 24 ft 12 kts 301°
2026-04-24 21:07 25.25816 55.35056 25 ft 17 kts
2026-04-24 21:07 25.25936 55.35125 26 ft 21 kts 31°
2026-04-24 21:07 25.26033 55.35191 23 ft 13 kts 32°
2026-04-24 21:08 25.26047 55.35201 24 ft 0 kts 32°
2026-04-24 21:08 25.26069 55.35216 24 ft 8 kts 31°
2026-04-24 21:08 25.26140 55.35262 25 ft 15 kts 31°
2026-04-24 21:08 25.26252 55.35335 25 ft 23 kts 31°
2026-04-24 21:09 25.26380 55.35421 25 ft 18 kts 31°
2026-04-24 21:09 25.26472 55.35486 23 ft 12 kts 42°
2026-04-24 21:09 25.26482 55.35568 24 ft 10 kts 89°
2026-04-24 21:09 25.26519 55.35614 23 ft 4 kts 29°
2026-04-24 21:10 25.26538 55.35625 23 ft 2 kts 31°
2026-04-24 21:10 25.26541 55.35627 23 ft 0 kts 31°